Location: Newark
(54.3386°S, 169.8415°W)
Time: 07:46:37
(UTC+00:00)

Transit 2A Rocket - Pass Details

Date: 31 October 2019
Orbit: 594 x 909 km, 66.7° (Epoch: 21 November)

Event Time Altitude Azimuth Distance (km) Brightness Sun altitude
Rises 05:04:59 0° 262° (W) 3,409 10.6 11.1°
Reaches altitude 10° 05:07:47 10° 249° (WSW) 2,520 10.0 10.7°
Maximum altitude 05:12:46 27° 192° (SSW) 1,656 7.1 9.9°
Drops below altitude 10° 05:17:56 10° 135° (SE) 2,621 7.5 9.2°
Sets 05:20:55 0° 122° (ESE) 3,570 8.0 8.8°
